Regional Weather Roundup
Issued by NWS Nashville, TN

Home | Current Version | Previous Version | Text Only | Print | Product List | Glossary On
Versions: 1 2 3 4 5 6 7 8 9 10 11 12 13 14 15 16 17 18 19 20 21 22 23 24 25 26 27 28 29 30 31 32 33 34 35 36 37 38 39 40 41 42 43 44 45 46 47 48 49 50
000
ASUS44 KOHX 141210
RWROHX
MIDDLE TENNESSEE HOURLY WEATHER ROUNDUP
NATIONAL WEATHER SERVICE NASHVILLE TN
600 AM CST SUN FEB 14 2016

NOTE: "FAIR" INDICATES FEW OR NO CLOUDS BELOW 12,000 FEET WITH
NO SIGNIFICANT WEATHER AND/OR OBSTRUCTIONS TO VISIBILITY.

* THESE REPORTS ARE NOT UNDER NWS QUALITY CONTROL AND MAY NOT
  REPORT WEATHER SUCH AS PRECIPITATION AND FOG.


TNZ005>011-023>034-057-059-062>066-078-080-141300
...NORTHERN MIDDLE TENNESSEE...

CITY           SKY/WX    TMP DP  RH WIND       PRES   REMARKS
CLARKSVILLE    CLOUDY    27   9  46 E8        30.37R WCI  19
CROSSVILLE     CLOUDY    22   5  48 E7        30.29R WCI  13
DICKSON        CLOUDY    25   7  46 NE3       30.33R
LEBANON        CLOUDY    25   7  46 E8        30.33F WCI  16
LIVINGSTON     CLOUDY    22   6  50 E6        30.32S WCI  15
NASHVILLE      CLOUDY    28   7  41 E8        30.35F WCI  20
PORTLAND       CLOUDY   N/A N/A N/A E7        30.35S
ROCKWOOD       CLOUDY    20   5  52 E5        30.33R WCI  14
SMYRNA         MOCLDY    27   9  46 E5        30.36F WCI  22
SPARTA         CLOUDY    25   9  50 E5        30.32R WCI  19
$$
TNZ056-058-060-061-075>077-079-093>097-141300
...SOUTHERN MIDDLE TENNESSEE...

CITY           SKY/WX    TMP DP  RH WIND       PRES   REMARKS
COLUMBIA       CLOUDY    25  12  58 E6        30.28F WCI  18
FAYETTEVILLE   PTCLDY    25  12  58 N5        30.32R WCI  19
LEWISBURG      CLOUDY    24  13  63 CALM      30.32R
MCMINNVILLE    CLOUDY    25   9  50 E7        30.32F WCI  17
SHELBYVILLE    CLOUDY    28  10  47 E3        30.33S
TULLAHOMA      MOCLDY    25   7  46 CALM      30.31R
WINCHESTER     CLEAR     25   9  50 E7        30.32R WCI  17
$$


...KEY TO REMARKS...
VSB - VISIBILITY IN MILES
WCI - WIND CHILL INDEX
HX  - HEAT INDEX




USA.gov is the U.S. government's official web portal to all federal, state and local government web resources and services.